This is the latest recevied weather packets stored in our database for station/object KD0JCP-10. If no packets are shown the sender has not sent any weather packets the latest 10 day(s).
| Time | Temp. | Humidity | Pressure | Rain* | Wind** | Luminosity | Snow |
|---|---|---|---|---|---|---|---|
| 1777656985 | 13.33° C | 46% | 1021.5 hPa | 0 mm | - | - | - |
| 1777656684 | 13.33° C | 46% | 1021.7 hPa | 0 mm | - | - | - |
| 1777656384 | 13.33° C | 44% | 1021.7 hPa | 0 mm | - | - | - |
| 1777656085 | 13.33° C | 44% | 1021.8 hPa | 0 mm | - | - | - |
| 1777655785 | 13.33° C | 45% | 1021.9 hPa | 0 mm | - | - | - |
| 1777655485 | 12.78° C | 47% | 1021.8 hPa | 0 mm | - | - | - |
| 1777655185 | 12.78° C | 46% | 1021.8 hPa | 0 mm | - | - | - |
| 1777654885 | 12.78° C | 47% | 1021.9 hPa | 0 mm | - | - | - |
| 1777654585 | 12.78° C | 46% | 1021.9 hPa | 0 mm | - | - | - |
| 1777654285 | 12.78° C | 46% | 1021.9 hPa | 0 mm | - | - | - |
| 1777653985 | 12.78° C | 47% | 1021.9 hPa | 0 mm | - | - | - |
| 1777653685 | 12.78° C | 47% | 1022 hPa | 0 mm | - | - | - |
| 1777653385 | 12.78° C | 47% | 1021.8 hPa | 0 mm | - | - | - |
| 1777653085 | 12.22° C | 48% | 1021.7 hPa | 0 mm | - | - | - |
| 1777652785 | 12.22° C | 47% | 1021.8 hPa | 0 mm | - | - | - |
| 1777652485 | 11.67° C | 52% | 1021.7 hPa | 0 mm | - | - | - |
| 1777652185 | 11.67° C | 51% | 1021.8 hPa | 0 mm | - | - | - |
| 1777651885 | 11.11° C | 52% | 1021.8 hPa | 0 mm | - | - | - |
| 1777651585 | 10.56° C | 55% | 1021.9 hPa | 0 mm | - | - | - |
| 1777651285 | 10° C | 53% | 1021.9 hPa | 0 mm | - | - | - |
| 1777650985 | 10.56° C | 54% | 1021.8 hPa | 0 mm | - | - | - |
| 1777650685 | 10° C | 55% | 1021.9 hPa | 0 mm | - | - | - |
| 1777650385 | 10° C | 55% | 1021.8 hPa | 0 mm | - | - | - |
| 1777650085 | 10° C | 54% | 1021.9 hPa | 0 mm | - | - | - |
| 1777649785 | 10° C | 53% | 1021.8 hPa | 0 mm | - | - | - |
* Rain latest hour (hover to see other rain measurements)
** Current wind speed in m/s (hover to see current wind gust speed)